Airfield :
LOGIN :

Register | Disclaimer

   EN    FR    IT 

 










Legend :    VFR   Marginal VFR   IFR   Intensive IFR   Very Intensive IFR
Visi :
Ceiling :
>= 8 km
>= 3000ft
5 to 8 km
1000 to 3000 ft
1500m to 5 km
500 to 1000 ft
800 to 1500m
200 to 500 ft
< 800m
< 200 ft
Symbols :   Thunderstorms  Fog  Heavy snow  Heavy precipitations  Wind > 20 kt
SIGMETs :     Misc.  Thunderstorms  Icing  Turbulence  Mountain Waves  Volcanic Ashes






- Airport Elevation : 289 ft


LFYR - Romorantin Pruniers

CURRENT METAR :
  • 252000Z AUTO 20002KT CAVOK 07/07 Q1016

EXPIRED METARs :
  • 251930Z AUTO 00000KT CAVOK 08/07 Q1016
  • 251900Z AUTO 00000KT CAVOK 09/08 Q1016
  • 251830Z AUTO 00000KT CAVOK 11/07 Q1016
  • 251800Z AUTO 00000KT CAVOK 13/08 Q1015
  • 251730Z AUTO 00000KT CAVOK 17/07 Q1015

Expired Forecast.



MET'MAP, your aeronautical weather chart ! - Copyright ORBIFLY December 2007 - Disclaimer

ORBIFLY MET'MAP TEAM :

Programming & Development : Alexandra Zaïnal
Original concept : Baudouin d'Aumeries
Technical & hardware support : Manuel Goepfert
Assistance : Marc-Olivier Méhu




SOURCES & CREDITS :

   NOAA